Terminal Aerodrome Forecast
Issued by NWS

Home | Current Version | Previous Version | Text Only | Print | Product List | Glossary On
Versions: 1 2 3 4 5 6 7 8 9 10 11 12 13 14 15 16 17 18 19 20
000
FTUS41 KGYX 302329
TAFAUG
TAF
KAUG 302329Z 3100/3124 20009KT P6SM SCT080 BKN200
     FM310300 19002KT 1 1/2SM BR SCT007
     FM310900 22002KT 1/4SM FG VV001
     FM311200 26005KT P6SM SKC
     FM311600 27009KT P6SM SKC=

USA.gov is the U.S. government's official web portal to all federal, state and local government web resources and services.